Location: Newark
(25.4297°S, 49.2719°W)
Time: 09:09:29
(UTC+00:00)

Vanguard 1 Rocket - Pass Details

Date: 25 November 2019
Orbit: 650 x 4226 km, 34.3° (Epoch: 06 December)

Event Time Altitude Azimuth Distance (km) Brightness Sun altitude
Rises 13:55:06 0° 318° (NW) 4,995 11.1 73.5°
Reaches altitude 10° 13:57:47 10° 322° (NW) 4,353 10.9 74.1°
Maximum altitude 14:10:41 61° 40° (NE) 3,264 12.0 76.9°
Drops below altitude 10° 14:33:55 10° 113° (ESE) 7,328 12.2 81.7°
Sets 14:40:10 0° 115° (ESE) 8,477 12.4 82.8°
